Location: Asheville, NC
(35.6000°N, 82.5500°W)
Time: 20:14:43
(UTC-04:00)

Vanguard 3 - Pass Details

Date: 14 March 2018
Orbit: 508 x 3264 km, 33.3° (Epoch: 24 June)

Event Time Altitude Azimuth Distance (km) Brightness Sun altitude
Rises 15:19:27 0° 283° (WNW) 6,123 11.9 45.4°
Reaches altitude 10° 15:24:27 10° 277° (W) 4,654 11.5 44.8°
Maximum altitude 15:34:59 38° 216° (SW) 2,016 12.0 43.4°
Drops below altitude 10° 15:41:16 10° 149° (SSE) 2,762 10.2 42.6°
Sets 15:43:31 0° 140° (SE) 3,449 10.4 42.3°
